Location: Krakow
(50.0830°N, 19.9170°E)
Time: 11:24:08
(UTC+02:00)

A-11 Canister half - Pass Details

Date: 20 March 2026
Orbit: 1523 x 1684 km, 47.3° (Epoch: 16 April)

Event Time Altitude Azimuth Distance (km) Brightness Sun altitude
Rises 15:30:14 0° 287° (WNW) 4,773 12.3 21.2°
Reaches altitude 10° 15:34:39 10° 270° (W) 3,756 12.4 20.6°
Maximum altitude 15:40:18 18° 232° (SW) 3,143 12.9 19.8°
Drops below altitude 10° 15:45:54 10° 195° (SSW) 3,692 11.7 19.0°
Sets 15:50:13 0° 177° (S) 4,660 11.8 18.4°
